COLIBRI-S (RS67S)

Last updated on Sun Jun 21 2026 00:03:20 GMT+0000 (Coordinated Universal Time)

1 61746U 24199M 26171.42368146 .00018492 00000+0 35702-3 0 9993 2 61746 97.2989 45.3069 0006297 262.7085 97.3450 15.47837273137917
UTC large
Height (km)
Speed (km/s)
/
Latitude / Longitude
Inclination (degrees)
Orbital Period (minutes)
Azimuth
Elevation
Range (km)
Doppler Factor

Next 0 passes for location: London (51.5072 / 0.1276)

No passes found over London.
COLIBRI-S (RS67S)